• In Uzbekistan
  • List of Countries
  • For 7 days
  • Water Temperature
  • Satellite Maps
  • Weather Map
  • Weather Widgets
  • user-avatar
    Login

    Hourly Weather Konstantyna

    Today, 23 January, Monday

    Time Temperature Precipitation Wind Pressure Humidity
    00:00 +4°C° 0 mm 1 mps 704 mmHg 88%
    01:00 +4°C° 0.3 mm 1 mps 703 mmHg 89%
    02:00 +3°C° 0.3 mm 1 mps 703 mmHg 91%
    03:00 +3°C° 0.3 mm 1 mps 703 mmHg 92%
    04:00 +3°C° 0 mm 1 mps 703 mmHg 92%
    05:00 +2°C° 0 mm 1 mps 703 mmHg 93%
    06:00 +2°C° 0 mm 1 mps 703 mmHg 92%
    07:00 +3°C° 0 mm 1 mps 704 mmHg 89%
    08:00 +5°C° 0 mm 1 mps 704 mmHg 87%
    09:00 +6°C° 0 mm 1 mps 705 mmHg 84%
    10:00 +8°C° 0 mm 1 mps 705 mmHg 78%
    11:00 +9°C° 0 mm 1 mps 705 mmHg 73%
    12:00 +9°C° 0 mm 2 mps 705 mmHg 67%
    13:00 +9°C° 0.1 mm 2 mps 705 mmHg 67%
    14:00 +10°C° 0.1 mm 2 mps 704 mmHg 68%
    15:00 +10°C° 0.1 mm 2 mps 704 mmHg 68%
    16:00 +8°C° 0.1 mm 1 mps 704 mmHg 76%
    17:00 +6°C° 0.1 mm 1 mps 704 mmHg 84%
    18:00 +4°C° 0.1 mm 1 mps 704 mmHg 92%
    19:00 +4°C° 0.1 mm 1 mps 704 mmHg 92%
    20:00 +4°C° 0.1 mm 1 mps 704 mmHg 92%
    21:00 +3°C° 0.1 mm 2 mps 705 mmHg 92%
    22:00 +3°C° 0 mm 2 mps 705 mmHg 93%
    23:00 +3°C° 0 mm 2 mps 705 mmHg 93%

    Tomorrow, 24 January, Tuesday

    Time Temperature Precipitation Wind Pressure Humidity
    00:00 +3°C° 0 mm 2 mps 705 mmHg 94%
    01:00 +2°C° 0 mm 2 mps 704 mmHg 93%
    02:00 +2°C° 0 mm 2 mps 704 mmHg 93%
    03:00 +2°C° 0 mm 2 mps 704 mmHg 93%
    04:00 +2°C° 0 mm 2 mps 704 mmHg 93%
    05:00 +2°C° 0 mm 2 mps 704 mmHg 93%
    06:00 +2°C° 0 mm 2 mps 705 mmHg 93%
    07:00 +3°C° 0 mm 2 mps 705 mmHg 89%
    08:00 +5°C° 0 mm 2 mps 706 mmHg 84%
    09:00 +6°C° 0 mm 2 mps 706 mmHg 80%
    10:00 +7°C° 0.1 mm 2 mps 706 mmHg 76%
    11:00 +9°C° 0.1 mm 3 mps 707 mmHg 72%
    12:00 +10°C° 0.1 mm 3 mps 707 mmHg 68%
    13:00 +9°C° 0.2 mm 3 mps 707 mmHg 70%
    14:00 +9°C° 0.2 mm 3 mps 707 mmHg 71%
    15:00 +9°C° 0.2 mm 3 mps 707 mmHg 72%
    16:00 +7°C° 0.8 mm 2 mps 707 mmHg 80%
    17:00 +6°C° 0.8 mm 2 mps 707 mmHg 87%
    18:00 +4°C° 0.8 mm 2 mps 707 mmHg 94%
    19:00 +4°C° 3.1 mm 2 mps 708 mmHg 95%
    20:00 +4°C° 3.1 mm 2 mps 708 mmHg 95%
    21:00 +5°C° 3.1 mm 2 mps 709 mmHg 96%
    22:00 +5°C° 2.6 mm 2 mps 709 mmHg 96%
    23:00 +5°C° 2.6 mm 2 mps 709 mmHg 96%

    Day after tomorrow, 25 January, Wednesday

    Time Temperature Precipitation Wind Pressure Humidity
    00:00 +4°C° 2.6 mm 3 mps 709 mmHg 95%
    01:00 +4°C° 1.4 mm 3 mps 709 mmHg 96%
    02:00 +4°C° 1.4 mm 3 mps 709 mmHg 96%
    03:00 +4°C° 1.4 mm 3 mps 709 mmHg 96%
    04:00 +4°C° 0.6 mm 3 mps 710 mmHg 96%
    05:00 +4°C° 0.6 mm 3 mps 710 mmHg 96%
    06:00 +3°C° 0.6 mm 3 mps 710 mmHg 96%
    07:00 +4°C° 0.1 mm 3 mps 711 mmHg 94%
    08:00 +5°C° 0.1 mm 3 mps 712 mmHg 91%
    09:00 +5°C° 0.1 mm 3 mps 712 mmHg 88%
    10:00 +7°C° 0 mm 3 mps 712 mmHg 83%
    11:00 +8°C° 0 mm 3 mps 712 mmHg 77%
    12:00 +9°C° 0 mm 2 mps 712 mmHg 71%
    13:00 +9°C° 0 mm 2 mps 712 mmHg 69%
    14:00 +10°C° 0 mm 1 mps 712 mmHg 66%
    15:00 +10°C° 0 mm 1 mps 712 mmHg 63%
    16:00 +8°C° 0 mm 1 mps 711 mmHg 72%
    17:00 +6°C° 0 mm 1 mps 711 mmHg 81%
    18:00 +2°C° 0 mm 0 mps 711 mmHg 90%
    19:00 +4°C° 0 mm 1 mps 711 mmHg 88%
    20:00 +4°C° 0 mm 1 mps 712 mmHg 87%
    21:00 +4°C° 0 mm 1 mps 712 mmHg 85%
    22:00 +4°C° 0 mm 1 mps 712 mmHg 85%
    23:00 +2°C° 0 mm 2 mps 712 mmHg 85%

    26 January, Thursday

    Time Temperature Precipitation Wind Pressure Humidity
    00:00 +2°C° 0 mm 2 mps 712 mmHg 85%
    01:00 +2°C° 0 mm 2 mps 712 mmHg 84%
    02:00 +2°C° 0 mm 2 mps 711 mmHg 84%
    03:00 +2°C° 0 mm 2 mps 711 mmHg 83%
    04:00 +2°C° 0 mm 2 mps 711 mmHg 83%
    05:00 +2°C° 0 mm 2 mps 711 mmHg 83%
    06:00 +2°C° 0 mm 2 mps 711 mmHg 82%
    07:00 +4°C° 0 mm 2 mps 711 mmHg 77%
    08:00 +6°C° 0 mm 2 mps 712 mmHg 72%
    09:00 +8°C° 0 mm 2 mps 712 mmHg 66%
    10:00 +9°C° 0 mm 2 mps 712 mmHg 61%
    11:00 +12°C° 0 mm 2 mps 712 mmHg 55%
    12:00 +14°C° 0 mm 2 mps 712 mmHg 49%
    13:00 +14°C° 0 mm 2 mps 712 mmHg 49%
    14:00 +13°C° 0 mm 2 mps 712 mmHg 50%
    15:00 +13°C° 0 mm 2 mps 711 mmHg 51%
    16:00 +9°C° 0 mm 2 mps 711 mmHg 61%
    17:00 +7°C° 0 mm 1 mps 711 mmHg 72%
    18:00 +5°C° 0 mm 1 mps 711 mmHg 82%
    19:00 +4°C° 0 mm 1 mps 711 mmHg 83%
    20:00 +4°C° 0 mm 1 mps 711 mmHg 83%
    21:00 +4°C° 0 mm 1 mps 711 mmHg 83%
    22:00 +4°C° 0 mm 1 mps 711 mmHg 81%
    23:00 +4°C° 0 mm 1 mps 710 mmHg 79%

    27 January, Friday

    Time Temperature Precipitation Wind Pressure Humidity
    00:00 +4°C° 0 mm 1 mps 710 mmHg 77%
    01:00 +3°C° 0 mm 1 mps 710 mmHg 75%
    02:00 +2°C° 0 mm 2 mps 709 mmHg 72%
    03:00 +2°C° 0 mm 2 mps 709 mmHg 70%
    04:00 +2°C° 0 mm 2 mps 709 mmHg 70%
    05:00 +2°C° 0 mm 2 mps 709 mmHg 69%
    06:00 +2°C° 0 mm 2 mps 708 mmHg 68%
    07:00 +3°C° 0 mm 2 mps 709 mmHg 63%
    08:00 +5°C° 0 mm 2 mps 709 mmHg 59%
    09:00 +7°C° 0 mm 2 mps 709 mmHg 54%
    10:00 +9°C° 0 mm 2 mps 709 mmHg 48%
    11:00 +12°C° 0 mm 2 mps 709 mmHg 43%
    12:00 +12°C° 0 mm 3 mps 708 mmHg 38%
    13:00 +13°C° 0 mm 2 mps 708 mmHg 39%
    14:00 +13°C° 0 mm 2 mps 707 mmHg 41%
    15:00 +13°C° 0 mm 2 mps 707 mmHg 43%
    16:00 +10°C° 0 mm 2 mps 707 mmHg 48%
    17:00 +8°C° 0 mm 2 mps 707 mmHg 52%
    18:00 +6°C° 0 mm 2 mps 707 mmHg 57%
    19:00 +6°C° 0 mm 2 mps 707 mmHg 58%
    20:00 +6°C° 0 mm 2 mps 707 mmHg 59%
    21:00 +5°C° 0 mm 2 mps 707 mmHg 60%
    22:00 +5°C° 0 mm 2 mps 707 mmHg 61%
    23:00 +5°C° 0 mm 2 mps 707 mmHg 62%

    28 January, Saturday

    Time Temperature Precipitation Wind Pressure Humidity
    00:00 +5°C° 0 mm 2 mps 707 mmHg 63%
    01:00 +5°C° 0 mm 2 mps 707 mmHg 63%
    02:00 +6°C° 0 mm 1 mps 707 mmHg 63%
    03:00 +6°C° 0 mm 1 mps 706 mmHg 63%
    04:00 +6°C° 0.1 mm 1 mps 707 mmHg 64%
    05:00 +5°C° 0.1 mm 1 mps 707 mmHg 65%
    06:00 +5°C° 0.1 mm 1 mps 707 mmHg 66%
    07:00 +6°C° 0.1 mm 1 mps 707 mmHg 66%
    08:00 +7°C° 0.1 mm 1 mps 707 mmHg 67%
    09:00 +8°C° 0.1 mm 1 mps 708 mmHg 67%
    10:00 +9°C° 0.1 mm 1 mps 708 mmHg 63%
    11:00 +9°C° 0.1 mm 0 mps 708 mmHg 60%
    12:00 +10°C° 0.1 mm 0 mps 708 mmHg 56%
    13:00 +11°C° 0.2 mm 1 mps 707 mmHg 62%
    14:00 +10°C° 0.2 mm 1 mps 707 mmHg 67%
    15:00 +10°C° 0.2 mm 1 mps 707 mmHg 72%
    16:00 +9°C° 0.4 mm 1 mps 708 mmHg 79%
    17:00 +8°C° 0.4 mm 1 mps 708 mmHg 85%
    18:00 +7°C° 0.4 mm 1 mps 708 mmHg 92%
    19:00 +6°C° 0.3 mm 1 mps 708 mmHg 93%
    20:00 +6°C° 0.3 mm 1 mps 708 mmHg 94%
    21:00 +6°C° 0.3 mm 1 mps 709 mmHg 94%
    22:00 +5°C° 0.1 mm 1 mps 709 mmHg 94%
    23:00 +5°C° 0.1 mm 1 mps 709 mmHg 94%
    Show more